| time (UTC) | temp C | wind direction | speed KPH | gust KPH | rain 1hr cm | rain 24hr cm | rain mn cm | humidity % | barometer mb |
| 20260505204546 | 16 | 104 | 3.2 | 11.3 | 0.00 | 0.00 | 0.00 | 43 | 1004.9 |
| 20260505203043 | 16 | 129 | 4.8 | 16.1 | 0.00 | 0.00 | 0.00 | 42 | 1004.9 |
| 20260505201542 | 16 | 127 | 8.0 | 12.9 | 0.00 | 0.00 | 0.00 | 42 | 1005.1 |
| 20260505200055 | 16 | 360 | 0.0 | 19.3 | 0.00 | 0.00 | 0.00 | 42 | 1004.8 |
| 20260505194541 | 16 | 124 | 4.8 | 12.9 | 0.00 | 0.00 | 0.00 | 42 | 1004.6 |
| 20260505193040 | 16 | 74 | 4.8 | 20.9 | 0.00 | 0.00 | 0.00 | 42 | 1004.7 |
| 20260505191545 | 16 | 141 | 1.6 | 12.9 | 0.00 | 0.00 | 0.00 | 42 | 1004.8 |
| 20260505190040 | 16 | 144 | 4.8 | 17.7 | 0.00 | 0.00 | 0.00 | 42 | 1004.7 |
| 20260505184538 | 16 | 127 | 3.2 | 11.3 | 0.00 | 0.00 | 0.00 | 43 | 1004.9 |
| 20260505183050 | 15 | 20 | 4.8 | 24.1 | 0.00 | 0.00 | 0.00 | 45 | 1004.8 |
| 20260505181537 | 16 | 72 | 4.8 | 14.5 | 0.00 | 0.00 | 0.00 | 44 | 1004.8 |
| 20260505180041 | 15 | 23 | 3.2 | 19.3 | 0.00 | 0.00 | 0.00 | 45 | 1005.1 |
| 20260505174541 | 16 | 136 | 4.8 | 14.5 | 0.00 | 0.00 | 0.00 | 43 | 1005.1 |
| 20260505173033 | 15 | 126 | 3.2 | 19.3 | 0.00 | 0.00 | 0.00 | 47 | 1004.8 |
| 20260505171533 | 15 | 27 | 6.4 | 14.5 | 0.00 | 0.00 | 0.00 | 46 | 1005.0 |
| 20260505170032 | 15 | 111 | 4.8 | 17.7 | 0.00 | 0.00 | 0.00 | 47 | 1004.8 |
| 20260505164530 | 15 | 110 | 8.0 | 20.9 | 0.00 | 0.00 | 0.00 | 46 | 1004.9 |
| 20260505163032 | 15 | 28 | 3.2 | 16.1 | 0.00 | 0.00 | 0.00 | 44 | 1004.9 |
| 20260505161527 | 14 | 63 | 9.7 | 16.1 | 0.00 | 0.00 | 0.00 | 47 | 1004.6 |
| 20260505153024 | 13 | 72 | 6.4 | 19.3 | 0.00 | 0.00 | 0.00 | 49 | 1004.0 |
| 20260505151522 | 13 | 88 | 4.8 | 16.1 | 0.00 | 0.00 | 0.00 | 48 | 1004.0 |
| 20260505124608 | 11 | 25 | 4.8 | 25.7 | 0.00 | 0.00 | 0.00 | 54 | 1001.3 |
| 20260505123055 | 11 | 56 | 8.0 | 24.1 | 0.00 | 0.00 | 0.00 | 54 | 1001.1 |
| 20260505121551 | 11 | 44 | 4.8 | 14.5 | 0.00 | 0.00 | 0.00 | 54 | 1001.0 |
| 20260505120053 | 12 | 39 | 3.2 | 17.7 | 0.00 | 0.00 | 0.00 | 54 | 1000.7 |
| 20260505114556 | 12 | 32 | 8.0 | 20.9 | 0.00 | 0.00 | 0.00 | 55 | 1000.3 |
| 20260505113045 | 12 | 91 | 4.8 | 25.7 | 0.00 | 0.00 | 0.00 | 55 | 1000.3 |
| 20260505111539 | 12 | 38 | 9.7 | 24.1 | 0.00 | 0.00 | 0.00 | 56 | 1000.0 |
| 20260505101538 | 15 | 298 | 12.9 | 27.4 | 0.00 | 0.00 | 0.00 | 48 | 999.5 |
| 20260505100019 | 17 | 20 | 11.3 | 24.1 | 0.00 | 0.00 | 0.00 | 36 | 999.2 |
| 20260505094521 | 18 | 60 | 12.9 | 25.7 | 0.00 | 0.00 | 0.00 | 28 | 998.6 |
| 20260505093013 | 18 | 274 | 6.4 | 16.1 | 0.00 | 0.00 | 0.00 | 27 | 998.3 |
| 20260505091511 | 17 | 265 | 9.7 | 22.5 | 0.00 | 0.00 | 0.00 | 29 | 998.0 |
| 20260505090016 | 17 | 210 | 4.8 | 9.7 | 0.00 | 0.00 | 0.00 | 30 | 997.5 |
| 20260505084505 | 18 | 229 | 3.2 | 9.7 | 0.00 | 0.00 | 0.00 | 29 | 997.5 |
| 20260505083004 | 18 | 236 | 4.8 | 9.7 | 0.00 | 0.00 | 0.00 | 28 | 997.5 |
| 20260505081606 | 18 | 223 | 4.8 | 9.7 | 0.00 | 0.00 | 0.00 | 27 | 997.5 |
| 20260505080058 | 19 | 222 | 6.4 | 12.9 | 0.00 | 0.00 | 0.00 | 27 | 997.6 |
| 20260505074555 | 19 | 250 | 4.8 | 12.9 | 0.00 | 0.00 | 0.00 | 27 | 997.8 |
| 20260505073104 | 19 | 227 | 8.0 | 14.5 | 0.00 | 0.00 | 0.00 | 27 | 997.7 |
| 20260505071558 | 20 | 208 | 11.3 | 19.3 | 0.00 | 0.00 | 0.00 | 26 | 997.7 |
| 20260505070045 | 20 | 237 | 11.3 | 16.1 | 0.00 | 0.00 | 0.00 | 25 | 997.9 |
| 20260505064543 | 21 | 227 | 9.7 | 20.9 | 0.00 | 0.00 | 0.00 | 24 | 997.9 |
| 20260505063039 | 21 | 228 | 11.3 | 24.1 | 0.00 | 0.00 | 0.00 | 24 | 997.9 |
| 20260505061535 | 21 | 243 | 11.3 | 20.9 | 0.00 | 0.00 | 0.00 | 23 | 998.0 |
| 20260505060043 | 22 | 205 | 11.3 | 24.1 | 0.00 | 0.00 | 0.00 | 23 | 998.1 |
| 20260505054530 | 22 | 217 | 12.9 | 25.7 | 0.00 | 0.00 | 0.00 | 22 | 998.0 |
| 20260505053030 | 22 | 222 | 11.3 | 20.9 | 0.00 | 0.00 | 0.00 | 22 | 998.1 |
| 20260505051528 | 22 | 190 | 14.5 | 25.7 | 0.00 | 0.00 | 0.00 | 22 | 998.2 |
| 20260505041524 | 22 | 191 | 6.4 | 17.7 | 0.00 | 0.00 | 0.00 | 24 | 998.3 |
| 20260505040020 | 22 | 181 | 11.3 | 24.1 | 0.00 | 0.00 | 0.00 | 23 | 998.5 |
| 20260505034519 | 22 | 210 | 11.3 | 22.5 | 0.00 | 0.00 | 0.00 | 23 | 998.4 |
| 20260505033018 | 23 | 234 | 14.5 | 25.7 | 0.00 | 0.00 | 0.00 | 22 | 998.3 |
| 20260505031517 | 23 | 208 | 9.7 | 20.9 | 0.00 | 0.00 | 0.00 | 21 | 998.3 |
| 20260505030017 | 23 | 212 | 9.7 | 19.3 | 0.00 | 0.00 | 0.00 | 19 | 998.2 |
| 20260505024515 | 23 | 231 | 9.7 | 20.9 | 0.00 | 0.00 | 0.00 | 17 | 998.1 |
| 20260505023021 | 23 | 213 | 4.8 | 16.1 | 0.00 | 0.00 | 0.00 | 16 | 997.8 |
| 20260505021516 | 25 | 173 | 9.7 | 20.9 | 0.00 | 0.00 | 0.00 | 15 | 997.8 |
| 20260505020014 | 25 | 252 | 8.0 | 29.0 | 0.00 | 0.00 | 0.00 | 14 | 997.8 |
| 20260505014515 | 25 | 202 | 12.9 | 25.7 | 0.00 | 0.00 | 0.00 | 14 | 997.6 |
| 20260505013011 | 26 | 191 | 14.5 | 25.7 | 0.00 | 0.00 | 0.00 | 14 | 997.7 |
| 20260505011512 | 26 | 225 | 12.9 | 22.5 | 0.00 | 0.00 | 0.00 | 14 | 997.5 |
| 20260505010009 | 26 | 222 | 9.7 | 24.1 | 0.00 | 0.00 | 0.00 | 13 | 997.4 |
| 20260505004514 | 27 | 203 | 12.9 | 27.4 | 0.00 | 0.00 | 0.00 | 13 | 997.7 |
| 20260505003006 | 27 | 275 | 16.1 | 30.6 | 0.00 | 0.00 | 0.00 | 13 | 997.7 |
| 20260505001506 | 27 | 232 | 17.7 | 25.7 | 0.00 | 0.00 | 0.00 | 12 | 997.9 |
| 20260505000009 | 28 | 272 | 14.5 | 25.7 | 0.00 | 0.00 | 0.00 | 11 | 997.7 |
| 20260504234506 | 28 | 281 | 19.3 | 33.8 | 0.00 | 0.00 | 0.00 | 12 | 997.9 |
| 20260504233003 | 28 | 214 | 12.9 | 24.1 | 0.00 | 0.00 | 0.00 | 14 | 997.8 |
| 20260504231502 | 28 | 231 | 8.0 | 19.3 | 0.00 | 0.00 | 0.00 | 17 | 997.6 |
| 20260504230200 | 28 | 235 | 9.7 | 25.7 | 0.00 | 0.00 | 0.00 | 19 | 997.8 |
| 20260504224559 | 29 | 212 | 9.7 | 25.7 | 0.00 | 0.00 | 0.00 | 20 | 997.8 |
| 20260504223101 | 29 | 230 | 8.0 | 22.5 | 0.00 | 0.00 | 0.00 | 18 | 998.2 |
| 20260504221553 | 30 | 240 | 8.0 | 19.3 | 0.00 | 0.00 | 0.00 | 16 | 998.5 |
| 20260504220053 | 30 | 231 | 12.9 | 30.6 | 0.00 | 0.00 | 0.00 | 16 | 998.5 |
| 20260504214606 | 30 | 284 | 12.9 | 25.7 | 0.00 | 0.00 | 0.00 | 16 | 998.7 |
| 20260504213055 | 29 | 257 | 9.7 | 17.7 | 0.00 | 0.00 | 0.00 | 17 | 998.9 |
| 20260504211504 | 29 | 278 | 12.9 | 25.7 | 0.00 | 0.00 | 0.00 | 18 | 999.3 |